Temperature
0 -0 -1 -1 -1 -2 -2 1 2 2 1 1 -0 -2 -3 -4 -5 -5 -5 -5 -5 -5 -5 -5 -5 -5 -5 -5 -5 -5 -5 -5 -5 -5 -5 -5 -5 -6 -6 -6 -6 -6 -6 -6
-1 -2 -2 -2 -2 -2 -2 -2 -1 -1 -1 -1 -3 -4 -5 -5 -6 -6 -6 -6 -6 -5 -5 -5 -5 -5 -5 -5 -5 -5 -6 -6 -6 -6 -6 -6 -6 -6 -6 -6 -6 -6 -6 -6
1 -2 -3 -0 -2 -3 -3 -4 -3 -1 -1 -3 -4 -5 -5 -5 -6 -6 -6 -6 -6 -6 -6 -6 -6 -6 -6 -6 -6 -6 -6 -6 -6 -6 -6 -7 -7 -7 -7 -7 -7 -7 -7 -7
-1 -2 -0 1 -4 -3 -4 -4 -4 -4 -4 -4 -5 -6 -6 -6 -6 -6 -6 -6 -6 -6 -6 -6 -6 -6 -6 -6 -6 -6 -6 -7 -7 -7 -7 -7 -7 -7 -7 -7 -7 -7 -7 -7
-1 -0 1 -1 -4 -5 -4 -3 -4 -5 -5 -6 -7 -7 -6 -6 -6 -6 -6 -6 -6 -6 -6 -6 -7 -7 -7 -7 -7 -7 -7 -7 -7 -7 -7 -8 -8 -8 -8 -8 -8 -8 -8 -8
-2 -0 1 0 -5 -7 -4 -2 -4 -6 -6 -7 -7 -3 -3 -6 -6 -7 -7 -7 -7 -7 -7 -7 -7 -7 -7 -7 -7 -7 -7 -8 -8 -8 -8 -8 -8 -8 -8 -8 -8 -9 -8 -8
-2 -1 -0 -3 -7 -6 -2 -1 -5 -6 -6 -7 -7 -5 -6 -7 -7 -7 -7 -7 -7 -7 -7 -7 -7 -8 -8 -8 -8 -8 -8 -9 -9 -9 -9 -9 -9 -9 -9 -9 -9 -9 -9 -9
-3 -2 -1 -7 -7 -4 -3 -5 -5 -6 -6 -7 -7 -7 -7 -7 -8 -8 -8 -8 -8 -8 -8 -8 -8 -8 -8 -8 -8 -9 -9 -9 -9 -9 -9 -9 -10 -9 -10 -10 -10 -10 -10 -10
-3 -2 -5 -7 -6 -6 -6 -6 -6 -6 -6 -7 -7 -8 -8 -8 -8 -8 -8 -8 -9 -9 -9 -9 -9 -9 -9 -9 -9 -9 -9 -9 -10 -10 -10 -10 -10 -10 -10 -10 -10 -10 -10 -10
-6 -5 -6 -7 -7 -6 -6 -6 -6 -6 -7 -7 -8 -8 -8 -8 -9 -9 -9 -9 -9 -9 -9 -9 -9 -9 -9 -9 -10 -10 -10 -10 -10 -10 -10 -10 -10 -11 -11 -11 -11 -11 -11 -11
-6 -6 -7 -7 -7 -6 -7 -7 -7 -7 -8 -8 -8 -8 -9 -9 -9 -9 -9 -9 -10 -10 -10 -10 -10 -10 -10 -10 -10 -10 -10 -10 -11 -11 -11 -11 -11 -11 -11 -11 -11 -11 -11 -12
-5 -6 -7 -6 -6 -6 -7 -7 -7 -7 -8 -8 -8 -9 -9 -9 -9 -10 -10 -10 -10 -10 -10 -10 -10 -10 -10 -10 -11 -11 -11 -11 -11 -11 -11 -11 -11 -11 -11 -11 -11 -12 -12 -12
-7 -7 -7 -7 -7 -7 -7 -7 -8 -8 -8 -8 -9 -9 -9 -10 -10 -10 -10 -10 -10 -10 -10 -10 -11 -11 -11 -11 -11 -11 -11 -11 -11 -12 -12 -12 -12 -12 -12 -12 -12 -12 -12 -12
-7 -7 -8 -7 -7 -7 -8 -8 -8 -8 -9 -9 -9 -9 -10 -10 -10 -10 -10 -11 -11 -11 -11 -11 -11 -11 -11 -11 -11 -11 -12 -12 -12 -12 -12 -12 -12 -12 -12 -12 -12 -12 -12 -12
-7 -8 -8 -8 -8 -8 -8 -9 -9 -9 -9 -9 -10 -10 -10 -10 -10 -10 -11 -11 -11 -11 -11 -11 -11 -11 -12 -12 -12 -12 -12 -12 -12 -12 -13 -13 -13 -13 -13 -13 -13 -13 -12 -12
-8 -8 -8 -8 -8 -8 -9 -9 -9 -9 -10 -10 -10 -10 -10 -11 -11 -11 -11 -11 -11 -12 -12 -12 -12 -12 -12 -12 -12 -12 -12 -13 -13 -13 -13 -13 -13 -13 -13 -13 -13 -13 -13 -13
-9 -9 -9 -9 -9 -9 -9 -9 -9 -10 -10 -10 -10 -11 -11 -11 -11 -11 -11 -12 -12 -12 -12 -12 -12 -12 -12 -13 -13 -13 -13 -13 -13 -13 -13 -14 -14 -14 -14 -14 -14 -14 -14 -13
-9 -9 -9 -9 -9 -9 -10 -10 -10 -10 -10 -10 -11 -11 -11 -11 -11 -11 -12 -12 -12 -12 -12 -12 -13 -13 -13 -13 -13 -13 -13 -13 -14 -14 -14 -14 -14 -14 -14 -14 -14 -14 -14 -14
-9 -9 -10 -10 -10 -10 -10 -10 -10 -10 -11 -11 -11 -11 -11 -12 -12 -12 -12 -12 -12 -12 -12 -13 -13 -13 -13 -13 -14 -14 -14 -14 -14 -14 -14 -14 -14 -14 -14 -14 -14 -14 -14 -14
-10 -10 -10 -10 -10 -10 -11 -11 -11 -11 -11 -11 -11 -12 -12 -12 -12 -12 -12 -13 -13 -13 -13 -13 -13 -14 -14 -14 -14 -14 -14 -14 -14 -14 -15 -15 -15 -15 -15 -15 -15 -15 -15 -15
-10 -10 -11 -11 -11 -11 -11 -11 -11 -11 -11 -12 -12 -12 -12 -12 -12 -13 -13 -13 -13 -13 -13 -14 -14 -14 -14 -14 -14 -15 -15 -15 -15 -15 -15 -15 -15 -15 -15 -15 -15 -15 -15 -15
-11 -11 -11 -11 -11 -11 -11 -12 -12 -12 -12 -12 -12 -12 -12 -13 -13 -13 -13 -13 -13 -14 -14 -14 -14 -14 -15 -15 -15 -15 -15 -15 -15 -15 -15 -15 -15 -16 -16 -16 -16 -16 -16 -16
-11 -11 -12 -12 -12 -12 -12 -12 -12 -12 -12 -12 -13 -13 -13 -13 -13 -14 -14 -14 -14 -14 -14 -15 -15 -15 -15 -15 -15 -15 -15 -15 -16 -16 -16 -16 -16 -16 -16 -16 -16 -16 -16 -16
-12 -12 -12 -12 -12 -12 -12 -12 -12 -13 -13 -13 -13 -13 -13 -14 -14 -14 -14 -14 -14 -15 -15 -15 -15 -15 -16 -16 -16 -16 -16 -16 -16 -16 -16 -16 -16 -16 -16 -16 -16 -16 -16 -16
-12 -12 -12 -12 -13 -13 -13 -13 -13 -13 -13 -13 -14 -14 -14 -14 -14 -14 -14 -15 -15 -15 -15 -15 -15 -16 -16 -16 -16 -16 -16 -16 -16 -17 -17 -17 -17 -17 -17 -16 -16 -16 -16 -16
-12 -13 -13 -13 -13 -13 -13 -13 -13 -14 -14 -14 -14 -14 -14 -15 -15 -15 -15 -15 -15 -15 -15 -16 -16 -16 -16 -16 -16 -16 -16 -16 -17 -17 -17 -17 -17 -17 -17 -17 -17 -17 -17 -16
-13 -13 -13 -13 -14 -14 -14 -14 -14 -14 -14 -14 -15 -15 -15 -15 -15 -15 -15 -16 -16 -16 -16 -16 -16 -16 -16 -16 -16 -17 -17 -17 -17 -17 -17 -17 -17 -17 -17 -17 -17 -17 -17 -17
Wind_Speed
7 5 4 7 9 11 13 12 12 11 12 12 8 7 6 5 4 4 4 3 3 3 3 3 3 3 3 3 3 3 3 3 3 3 3 3 3 3 4 4 4 4 4 4
5 5 5 8 11 13 14 13 14 14 15 10 6 3 4 5 5 5 5 5 4 4 4 4 3 3 4 4 3 3 3 3 3 3 3 3 3 4 4 4 4 4 4 4
5 2 4 9 10 12 8 8 9 12 10 4 4 5 6 6 5 6 6 5 5 5 5 5 4 4 4 4 3 3 3 3 3 3 3 4 4 4 4 4 5 4 4 5
3 2 8 4 1 6 9 9 10 9 8 6 6 6 6 6 6 6 6 5 5 5 4 4 4 4 4 4 3 3 3 4 3 3 4 4 4 4 5 4 5 5 5 5
3 5 8 4 3 5 6 7 8 11 10 6 3 4 4 4 5 5 6 5 5 5 4 4 4 4 3 3 3 3 4 4 4 4 4 4 4 5 5 5 5 5 5 5
4 5 7 2 3 2 3 5 3 6 7 5 2 4 3 0 2 3 4 4 3 3 3 3 3 3 3 3 4 4 5 5 4 4 4 5 5 5 5 5 5 6 5 5
8 8 7 0 4 5 5 3 1 5 5 5 5 4 2 1 2 2 3 3 2 2 3 3 3 2 4 4 5 5 4 4 4 4 4 5 5 5 5 5 5 5 6 6
6 8 8 5 7 7 3 1 1 3 4 5 5 3 3 3 3 3 3 2 2 2 3 3 2 3 4 5 5 4 4 4 4 4 4 4 4 4 4 4 5 5 5 6
8 6 1 7 6 3 1 2 3 3 3 4 4 4 4 3 3 3 3 3 2 3 4 4 3 3 5 5 4 4 4 4 4 4 4 4 4 4 4 4 4 4 4 5
6 7 4 5 5 4 4 4 4 4 4 4 5 5 4 4 4 4 3 3 3 3 4 5 4 4 5 5 4 3 4 4 4 4 4 4 4 4 4 4 4 4 4 5
7 6 4 5 6 6 5 5 5 5 5 5 5 5 5 5 5 4 4 3 3 4 5 5 5 5 4 4 3 3 4 4 4 4 4 4 4 4 5 5 5 5 5 5
7 4 4 4 4 5 5 6 6 5 5 5 5 6 5 5 5 4 4 4 4 4 5 5 5 5 4 3 3 3 4 4 3 3 3 4 4 4 6 7 9 10 10 9
6 4 5 6 5 5 5 6 5 5 5 5 5 5 5 5 5 4 4 4 5 5 5 5 5 5 5 4 3 4 4 4 4 4 4 4 4 4 5 5 7 9 10 10
6 4 5 5 5 4 4 4 4 4 4 5 5 4 4 5 5 5 5 5 5 5 5 5 5 6 5 4 4 5 5 5 5 4 4 4 4 5 5 5 6 5 7 9
6 6 6 5 4 3 3 3 3 4 4 4 4 4 5 5 6 6 5 4 4 5 5 5 6 6 4 4 4 5 5 4 4 4 4 4 5 5 5 5 6 6 6 6
4 4 5 5 6 5 4 4 5 6 5 5 5 5 5 6 6 5 4 4 4 6 6 6 6 6 4 4 5 4 5 6 5 4 4 4 4 4 5 5 5 5 6 6
3 4 5 6 6 6 6 6 7 6 6 6 6 5 5 4 5 5 5 4 5 6 6 6 6 5 4 4 5 4 4 5 6 5 4 5 5 5 5 5 5 6 6 7
6 6 6 6 6 7 7 7 6 6 6 6 5 5 5 5 6 6 5 4 5 6 6 5 5 5 4 4 4 4 4 4 4 4 4 4 5 5 5 5 6 7 6 6
5 6 6 6 6 6 6 6 6 6 5 5 5 5 6 6 6 5 4 4 5 6 5 4 6 4 4 5 4 4 4 4 4 4 4 6 6 5 5 5 6 6 6 6
5 5 5 5 5 5 5 5 5 5 4 4 4 5 5 5 5 4 4 5 5 5 4 5 5 4 4 5 5 3 4 4 5 5 5 5 5 5 5 6 6 6 6 6
5 5 5 5 5 4 4 4 4 5 4 4 5 5 5 5 4 4 4 5 5 4 5 6 4 4 4 4 5 3 3 4 4 4 5 5 5 5 6 6 6 6 6 6
5 4 5 4 4 4 4 3 3 4 4 4 4 4 4 4 4 4 5 5 4 5 4 4 4 5 5 4 2 3 4 4 4 4 5 5 5 6 6 6 6 6 6 6
4 4 4 4 4 4 4 3 3 3 4 4 4 4 4 4 3 3 4 3 3 5 5 4 5 6 5 3 3 3 4 4 4 5 5 5 5 6 6 6 6 6 6 6
4 4 4 3 3 3 3 3 3 3 3 4 4 4 4 3 3 3 4 5 5 6 4 5 7 6 5 3 3 4 4 5 5 5 5 5 5 6 6 6 6 6 6 7
4 3 3 3 3 3 3 3 3 2 2 2 3 3 3 3 3 3 3 4 5 5 4 5 6 6 4 3 4 4 4 5 6 6 5 6 6 6 6 6 6 6 6 7
3 3 3 3 3 3 3 2 2 2 2 3 3 3 3 2 3 3 3 3 5 5 4 3 4 4 4 4 5 5 5 6 6 6 6 6 6 7 6 6 8 7 7 7
3 3 2 3 3 2 2 2 3 3 3 3 3 3 3 2 2 3 3 3 3 3 3 3 3 4 4 4 5 5 5 5 5 6 6 6 6 6 7 8 7 7 7 7
Wind_Direction
259 267 231 235 226 206 214 230 242 254 257 268 276 271 270 269 255 246 246 247 255 265 272 275 285 293 295 295 291 288 286 287 289 296 302 307 311 313 313 311 307 304 303 303
257 244 245 257 246 228 230 238 246 262 268 274 286 267 258 257 251 249 254 259 266 269 270 270 275 283 288 288 290 279 275 284 294 298 298 300 305 307 307 305 304 303 300 300
252 249 277 259 238 217 214 218 220 240 253 268 271 265 266 262 252 250 261 269 267 265 266 267 268 268 270 275 279 270 270 283 288 290 291 296 302 301 299 299 300 298 298 298
254 236 245 254 134 202 217 234 226 242 260 264 270 288 281 259 246 256 264 268 272 269 268 269 269 269 270 270 263 263 269 276 280 283 287 295 296 295 296 296 294 294 295 296
224 250 267 261 188 180 206 253 224 233 252 266 288 294 271 240 238 254 265 267 269 263 260 263 265 268 263 262 261 262 265 271 274 275 280 287 289 290 293 293 292 293 294 294
214 242 254 248 141 159 180 255 209 214 238 241 209 262 274 196 269 275 279 276 274 272 267 263 267 263 250 256 260 262 266 269 270 269 269 274 281 286 289 286 287 291 291 291
225 241 262 211 146 158 205 262 180 212 225 212 217 254 288 281 286 281 285 284 277 270 266 266 270 256 253 256 258 266 271 270 269 268 268 270 276 279 282 284 287 289 290 291
205 226 247 148 155 196 239 17 208 225 224 223 238 252 256 264 275 277 284 290 281 277 281 283 267 249 257 263 271 273 266 264 268 271 272 273 275 280 281 281 283 286 290 293
208 227 346 168 195 225 253 245 244 240 234 225 237 246 253 261 265 272 273 276 276 275 286 289 273 252 258 271 278 266 261 263 267 271 271 271 269 274 278 276 276 283 288 292
247 257 247 221 236 251 244 250 257 252 239 219 228 240 251 257 262 268 268 267 267 268 277 285 283 272 266 277 271 253 257 266 269 269 272 271 267 264 264 266 270 276 283 288
248 265 283 248 236 248 253 259 260 260 250 237 233 242 248 256 260 264 268 269 262 260 269 279 287 283 280 277 262 255 259 263 266 265 269 271 267 263 261 260 263 267 275 280
246 240 236 257 250 238 241 249 245 245 253 252 239 241 248 255 260 262 265 267 266 266 270 278 284 285 286 276 256 254 263 266 265 265 269 271 276 281 272 268 275 273 275 277
255 266 259 272 271 244 242 249 245 238 241 249 250 244 245 254 258 260 262 263 264 267 272 277 280 282 285 276 258 253 260 267 268 267 267 269 273 278 288 286 280 282 282 284
250 250 260 255 258 256 247 249 247 250 250 247 248 245 243 251 259 260 261 264 267 269 271 273 275 278 281 269 258 258 263 266 266 265 265 267 268 271 275 284 293 294 294 293
247 240 250 265 270 258 246 237 244 254 259 260 251 246 245 250 256 260 265 267 268 269 270 272 274 278 281 261 254 259 263 265 264 267 267 267 270 272 273 275 280 287 294 297
276 271 254 252 253 256 251 242 245 255 258 259 255 252 250 252 258 261 260 255 260 268 272 272 273 278 277 262 258 259 259 263 268 269 267 268 269 269 271 273 277 281 286 295
247 261 255 260 257 256 251 248 248 252 254 253 253 254 254 255 260 262 262 260 261 267 271 268 271 277 269 258 254 258 262 263 265 268 267 268 270 271 272 273 276 280 284 290
245 253 252 255 256 258 262 261 256 254 252 253 254 249 245 246 254 263 271 275 277 279 274 270 271 274 266 260 254 255 256 259 260 264 267 268 270 270 272 274 276 280 285 290
273 271 269 264 257 254 258 260 258 256 256 250 246 245 246 250 256 264 269 268 269 275 280 275 277 279 275 268 268 255 255 261 267 268 269 271 274 273 272 273 276 279 283 286
286 285 280 277 272 261 261 264 262 259 254 245 244 247 252 255 255 257 259 260 260 270 284 282 278 274 273 269 269 263 262 264 267 271 273 272 273 274 274 275 276 278 280 281
293 293 290 286 283 278 270 264 257 258 259 245 238 244 251 259 255 251 254 268 277 275 279 279 279 275 275 273 268 264 263 267 272 274 276 277 277 277 277 278 278 278 278 279
298 295 291 287 283 286 286 274 260 258 257 252 249 249 251 256 255 256 254 258 274 282 287 277 273 276 283 281 269 270 272 272 273 275 276 276 277 278 278 279 278 279 278 278
296 292 290 288 285 287 291 282 268 258 252 250 247 245 247 253 253 254 270 269 275 282 288 278 278 285 291 282 277 277 278 277 277 276 276 275 275 275 277 278 278 278 278 279
297 294 292 293 289 282 287 294 288 273 265 265 258 252 252 257 264 258 265 275 284 289 288 283 285 290 294 284 281 280 279 279 279 279 279 277 274 274 274 275 276 277 277 278
295 291 289 287 283 283 287 292 291 285 280 275 274 269 260 253 257 267 271 275 281 290 289 285 289 294 294 282 279 276 275 274 276 279 278 278 277 277 276 276 276 277 278 278
292 289 285 279 279 283 283 278 279 282 280 283 287 283 279 274 269 271 269 271 274 282 286 281 283 284 280 278 277 276 276 279 282 281 278 277 277 276 276 277 278 277 276 277
297 295 293 294 295 290 283 277 275 276 273 272 281 282 280 280 281 287 287 282 280 278 277 276 275 274 275 276 277 277 277 276 275 275 276 275 275 275 275 275 277 278 277 276
Height
1510 1511 1513 1511 1512 1516 1515 1504 1498 1490 1492 1490 1493 1496 1497 1496 1496 1495 1495 1494 1494 1493 1493 1492 1492 1492 1491 1491 1490 1489 1489 1488 1487 1486 1485 1483 1482 1481 1479 1478 1477 1475 1474 1473
1512 1512 1513 1511 1506 1508 1509 1506 1502 1498 1494 1491 1493 1494 1494 1494 1493 1493 1492 1491 1491 1490 1490 1489 1489 1489 1488 1488 1487 1486 1486 1485 1484 1483 1481 1480 1479 1478 1476 1475 1473 1472 1471 1469
1501 1511 1511 1497 1496 1501 1502 1501 1500 1494 1489 1491 1492 1492 1491 1491 1490 1489 1489 1488 1487 1487 1487 1487 1486 1486 1485 1485 1484 1483 1482 1481 1480 1479 1478 1477 1476 1474 1473 1471 1470 1468 1467 1466
1503 1507 1497 1485 1495 1495 1496 1496 1496 1493 1490 1490 1490 1489 1488 1487 1487 1486 1485 1485 1484 1484 1483 1483 1483 1483 1482 1481 1481 1480 1479 1478 1477 1476 1475 1473 1472 1471 1469 1468 1467 1465 1463 1462
1502 1494 1483 1487 1493 1495 1495 1490 1489 1490 1488 1488 1488 1487 1485 1484 1484 1483 1482 1481 1481 1480 1480 1480 1480 1479 1478 1478 1477 1476 1475 1474 1473 1472 1471 1470 1468 1467 1466 1465 1463 1461 1460 1458
1502 1493 1480 1479 1491 1492 1494 1485 1484 1485 1485 1485 1486 1483 1481 1481 1481 1480 1479 1479 1478 1477 1477 1477 1476 1476 1475 1474 1473 1472 1471 1470 1469 1468 1467 1466 1465 1464 1462 1461 1459 1458 1456 1455
1497 1491 1479 1486 1490 1492 1486 1477 1481 1481 1481 1482 1482 1481 1480 1478 1478 1477 1476 1476 1475 1474 1474 1473 1473 1472 1471 1470 1469 1469 1468 1467 1466 1465 1464 1462 1461 1460 1459 1457 1455 1454 1452 1451
1494 1489 1480 1487 1488 1485 1479 1479 1479 1478 1479 1479 1478 1477 1476 1476 1475 1474 1474 1473 1472 1471 1471 1470 1469 1469 1467 1466 1466 1465 1464 1463 1462 1461 1460 1458 1457 1456 1455 1453 1451 1450 1448 1446
1485 1479 1479 1480 1479 1478 1478 1478 1477 1477 1476 1476 1475 1475 1474 1473 1472 1472 1471 1470 1469 1468 1467 1467 1466 1465 1464 1463 1462 1461 1460 1459 1458 1457 1456 1455 1453 1452 1451 1449 1448 1446 1444 1442
1484 1477 1477 1477 1476 1476 1476 1475 1474 1474 1473 1473 1472 1471 1471 1470 1469 1469 1468 1467 1466 1465 1464 1463 1462 1461 1461 1460 1458 1457 1456 1455 1454 1453 1452 1451 1450 1448 1447 1446 1444 1442 1441 1439
1479 1476 1475 1473 1473 1473 1472 1472 1471 1471 1470 1469 1469 1468 1467 1467 1466 1465 1464 1464 1463 1461 1461 1460 1459 1458 1457 1456 1455 1454 1453 1451 1450 1449 1448 1447 1446 1445 1443 1442 1441 1439 1438 1436
1470 1471 1472 1470 1469 1469 1469 1468 1467 1466 1466 1466 1466 1464 1464 1463 1463 1462 1461 1460 1459 1458 1457 1456 1455 1454 1453 1452 1451 1450 1449 1448 1447 1445 1444 1443 1442 1441 1439 1438 1437 1436 1434 1433
1469 1468 1467 1466 1465 1465 1465 1464 1463 1463 1462 1462 1461 1461 1460 1459 1459 1458 1457 1456 1455 1454 1453 1452 1451 1451 1450 1449 1447 1446 1445 1444 1443 1442 1440 1439 1438 1436 1435 1434 1433 1432 1430 1428
1465 1465 1463 1462 1462 1461 1461 1460 1460 1459 1459 1458 1457 1457 1456 1455 1455 1454 1453 1453 1452 1451 1450 1449 1448 1447 1446 1445 1444 1442 1441 1440 1439 1438 1436 1435 1434 1433 1431 1430 1428 1427 1426 1424
1460 1461 1460 1459 1458 1457 1457 1456 1456 1455 1454 1454 1453 1453 1452 1451 1450 1450 1449 1449 1448 1447 1446 1445 1444 1443 1442 1440 1439 1438 1437 1436 1435 1434 1433 1432 1430 1429 1428 1426 1424 1422 1421 1420
1457 1457 1456 1455 1454 1454 1453 1452 1451 1450 1450 1449 1449 1448 1448 1447 1446 1446 1445 1444 1443 1442 1442 1441 1440 1439 1438 1436 1435 1434 1433 1432 1431 1430 1429 1428 1426 1425 1423 1422 1420 1418 1417 1415
1453 1452 1451 1450 1450 1449 1449 1448 1447 1446 1445 1445 1444 1444 1444 1443 1442 1441 1441 1440 1439 1438 1438 1437 1435 1434 1433 1432 1431 1430 1429 1428 1427 1426 1425 1423 1422 1421 1419 1418 1416 1415 1413 1412
1450 1449 1448 1447 1446 1445 1444 1444 1443 1442 1441 1441 1440 1440 1439 1438 1438 1437 1436 1436 1435 1434 1433 1432 1431 1430 1429 1428 1427 1426 1425 1424 1423 1422 1420 1419 1418 1417 1415 1414 1412 1410 1408 1407
1446 1445 1444 1443 1442 1441 1440 1439 1438 1438 1437 1437 1436 1435 1435 1434 1434 1433 1432 1432 1430 1429 1429 1428 1427 1426 1425 1424 1423 1422 1421 1420 1419 1417 1416 1415 1413 1412 1410 1409 1407 1406 1404 1402
1442 1441 1440 1439 1438 1437 1436 1435 1434 1433 1433 1432 1432 1431 1430 1430 1430 1429 1428 1427 1427 1425 1425 1424 1422 1422 1421 1420 1419 1418 1417 1416 1414 1413 1412 1410 1409 1407 1406 1404 1402 1401 1399 1398
1439 1437 1436 1435 1434 1433 1432 1431 1430 1429 1428 1428 1427 1427 1426 1426 1426 1425 1424 1423 1423 1422 1420 1419 1418 1417 1417 1416 1415 1413 1412 1411 1410 1409 1407 1406 1404 1403 1401 1400 1398 1396 1394 1393
1435 1434 1432 1431 1430 1429 1428 1427 1426 1425 1424 1424 1423 1423 1422 1422 1421 1421 1420 1420 1419 1418 1417 1415 1414 1414 1413 1412 1410 1409 1408 1407 1406 1404 1403 1401 1399 1398 1396 1395 1393 1391 1390 1388
1432 1431 1429 1428 1427 1426 1425 1424 1423 1422 1421 1420 1420 1419 1419 1418 1417 1416 1415 1415 1415 1414 1413 1412 1411 1410 1409 1407 1406 1405 1404 1402 1401 1399 1398 1396 1395 1393 1391 1390 1388 1386 1385 1383
1429 1428 1427 1425 1424 1423 1421 1421 1420 1419 1418 1417 1417 1416 1415 1414 1413 1413 1412 1412 1411 1410 1409 1408 1407 1406 1405 1403 1402 1400 1399 1398 1396 1394 1393 1391 1390 1388 1387 1385 1383 1381 1380 1378
1427 1425 1424 1422 1421 1420 1419 1418 1417 1416 1415 1414 1414 1413 1412 1411 1410 1409 1408 1408 1407 1406 1405 1404 1403 1402 1400 1399 1397 1396 1395 1393 1391 1390 1388 1387 1385 1383 1382 1380 1378 1376 1375 1373
1424 1423 1421 1420 1419 1418 1416 1415 1413 1412 1411 1410 1410 1409 1409 1408 1407 1406 1405 1404 1403 1402 1401 1400 1399 1397 1396 1395 1393 1391 1390 1388 1387 1385 1384 1382 1380 1378 1377 1375 1373 1372 1370 1368
1422 1420 1419 1417 1416 1415 1414 1412 1411 1409 1408 1407 1406 1406 1405 1404 1403 1402 1401 1400 1399 1398 1397 1396 1395 1393 1392 1390 1389 1387 1385 1384 1382 1381 1379 1377 1375 1374 1372 1370 1368 1367 1365 1363